Simultaneous Nadir Overpasses (SNOs) Predictions

Prediction of SNOs between AQUA and NOAA-19 Satellite Orbit:

Table of predicted SNOs for the next 14.0 days since TLE Epoch: 4/16/2022
Index Date (AQUA) Time (AQUA) Lat,Lon (AQUA) SZA (AQUA ) Date (NOAA-19) Time (NOAA-19) Lat,Lon (NOAA-19) SZA (NOAA-19 ) Distance(km) Time Diff (sec)
1 04/17/2022 13:25:11 -77.77, 141.41 112.31 04/17/2022 13:24:47 -77.77, 141.25 112.30 4.00 24
2 04/17/2022 14:14:38 77.82, -51.17 67.74 04/17/2022 14:15:39 77.81, -51.26 67.72 2.48 61
3 04/19/2022 18:58:40 77.74,-121.82 66.87 04/19/2022 18:57:39 77.78,-121.83 66.93 4.37 61
4 04/19/2022 19:48:07 -77.79, 45.60 113.08 04/19/2022 19:48:44 -77.82, 45.58 113.07 2.75 37
5 04/22/2022 01:21:37 77.78, 142.27 66.14 04/22/2022 01:21:38 77.79, 142.29 66.15 0.68 1
6 04/24/2022 06:55:06 -77.78,-121.07 114.62 04/24/2022 06:54:43 -77.77,-120.98 114.62 2.04 23
7 04/24/2022 07:44:33 77.80, 46.49 65.40 04/24/2022 07:45:37 77.79, 46.39 65.39 2.41 64
8 04/26/2022 12:28:35 77.77, -24.38 64.64 04/26/2022 12:27:37 77.75, -24.24 64.64 3.59 58
9 04/26/2022 13:18:02 -77.81, 143.09 115.32 04/26/2022 13:18:41 -77.80, 143.25 115.35 3.82 39
10 04/28/2022 18:01:57 -77.48, 73.50 116.43 04/28/2022 18:00:50 -77.39, 70.70 116.30 68.62 67
11 04/28/2022 18:51:30 77.77,-120.11 63.93 04/28/2022 18:51:36 77.75,-120.19 63.91 3.14 6



Historial Predications of SNOs between AQUA and NOAA-19
